VK2HAR Weather Reports


time (UTC)temp
C
wind
direction
speed
KPH
gust
KPH
rain 1hr
cm
rain 24hr
cm
rain mn
cm
humidity
%
barometer
mb
20260503190003 14 0 0.0 0.0 0.00 0.00 0.00 95 1015.7
20260503185403 14 0 0.0 0.0 0.00 0.00 0.00 95 1015.7
20260503184503 13 0 0.0 0.0 0.00 0.00 0.00 94 1015.9
20260503183820 13 0 0.0 0.0 0.00 0.00 0.00 94 1015.7
20260503182703 13 0 0.0 0.0 0.00 0.00 0.00 95 1015.7
20260503181803 13 0 0.0 0.0 0.00 0.00 0.00 95 1015.7
20260503180904 13 0 0.0 0.0 0.00 0.00 0.00 95 1015.7
20260503180004 13 0 0.0 0.0 0.00 0.00 0.00 94 1015.8
20260503175403 13 0 0.0 0.0 0.00 0.00 0.00 94 1015.8
20260503174503 13 0 0.0 0.0 0.00 0.00 0.00 94 1015.8
20260503173603 13 0 0.0 0.0 0.00 0.00 0.00 94 1015.9
20260503172703 13 0 0.0 0.0 0.00 0.00 0.00 94 1015.8
20260503171803 13 0 0.0 0.0 0.00 0.00 0.00 94 1016.0
20260503170906 13 0 0.0 0.0 0.00 0.00 0.00 94 1016.0
20260503140220 14 0 0.0 0.0 0.00 0.00 0.00 92 1017.7
20260503130903 14 0 0.0 0.0 0.00 0.00 0.00 92 1018.1
20260503110218 16 73 1.6 4.8 0.00 0.00 0.00 88 1018.5
20260503080903 22 76 0.0 3.2 0.00 0.00 0.00 70 1017.8
20260503072704 23 50 3.2 6.4 0.00 0.00 0.00 64 1017.4
20260503072019 23 49 3.2 9.7 0.00 0.00 0.00 64 1017.4
20260503070905 23 47 3.2 9.7 0.00 0.00 0.00 62 1017.4
20260503054503 25 60 9.7 19.3 0.00 0.00 0.00 58 1017.6
20260503053819 25 70 11.3 20.9 0.00 0.00 0.00 58 1017.6
20260503052703 25 72 11.3 20.9 0.00 0.00 0.00 58 1017.7
20260503051803 25 66 12.9 20.9 0.00 0.00 0.00 58 1017.8
20260503050903 25 74 11.3 22.5 0.00 0.00 0.00 58 1017.8
20260503050216 25 84 14.5 22.5 0.00 0.00 0.00 58 1017.8
20260503045405 25 78 11.3 20.9 0.00 0.00 0.00 58 1017.9
20260503044503 25 79 9.7 17.7 0.00 0.00 0.00 58 1018.0
20260503043604 26 77 9.7 19.3 0.00 0.00 0.00 57 1018.0
20260503042703 26 76 12.9 24.1 0.00 0.00 0.00 57 1018.1
20260503041803 25 49 9.7 16.1 0.00 0.00 0.00 57 1018.1
20260503040904 25 52 9.7 20.9 0.00 0.00 0.00 57 1018.3
20260503040004 26 69 6.4 20.9 0.00 0.00 0.00 56 1018.5
20260503035619 26 72 8.0 17.7 0.00 0.00 0.00 56 1018.5
20260503034719 25 51 11.3 17.7 0.00 0.00 0.00 56 1018.6
20260503033818 26 81 9.7 17.7 0.00 0.00 0.00 55 1018.5
20260503032703 25 67 9.7 19.3 0.00 0.00 0.00 58 1018.7
20260503031804 25 93 11.3 19.3 0.00 0.00 0.00 61 1018.9
20260503030904 25 85 8.0 19.3 0.00 0.00 0.00 61 1019.2
20260503030003 24 91 8.0 14.5 0.00 0.00 0.00 64 1019.2
20260503025619 24 102 6.4 14.5 0.00 0.00 0.00 64 1019.3
20260503024503 24 114 4.8 14.5 0.00 0.00 0.00 65 1019.5
20260503023818 24 94 4.8 14.5 0.00 0.00 0.00 66 1019.6
20260503022704 23 70 4.8 12.9 0.00 0.00 0.00 67 1019.8
20260503021803 23 98 3.2 9.7 0.00 0.00 0.00 70 1019.9
20260503020903 22 107 4.8 9.7 0.00 0.00 0.00 71 1020.1
20260503020003 22 108 3.2 11.3 0.00 0.00 0.00 72 1020.3
20260503015403 22 117 4.8 11.3 0.00 0.00 0.00 72 1020.6
20260503014503 22 114 3.2 11.3 0.00 0.00 0.00 73 1020.8
20260503013603 22 95 4.8 12.9 0.00 0.00 0.00 73 1021.1
20260503012917 22 86 6.4 12.9 0.00 0.00 0.00 72 1021.1
20260503011803 22 79 4.8 12.9 0.00 0.00 0.00 75 1021.3
20260503010903 22 90 4.8 14.5 0.00 0.00 0.00 75 1021.6
20260503010003 21 178 3.2 9.7 0.00 0.00 0.00 78 1021.6
20260503005618 21 177 3.2 9.7 0.00 0.00 0.00 78 1021.7
20260503004718 21 155 3.2 9.7 0.00 0.00 0.00 77 1021.9
20260503003603 21 64 1.6 4.8 0.00 0.00 0.00 78 1022.2
20260503002704 20 60 3.2 6.4 0.00 0.00 0.00 80 1022.1
20260503001803 20 79 3.2 6.4 0.00 0.00 0.00 81 1022.4
20260503000903 19 80 1.6 4.8 0.00 0.00 0.00 84 1022.4
20260503000003 19 80 3.2 6.4 0.00 0.00 0.00 84 1022.4
20260502235404 19 89 3.2 6.4 0.00 0.00 0.00 84 1022.3
20260502234503 18 89 3.2 8.0 0.00 0.00 0.00 86 1022.4
20260502233603 18 96 3.2 4.8 0.00 0.00 0.00 86 1022.4
20260502232704 18 96 3.2 6.4 0.00 0.00 0.00 88 1022.6
20260502231804 17 98 1.6 4.8 0.00 0.00 0.00 90 1022.6
20260502230903 17 94 3.2 4.8 0.00 0.00 0.00 90 1022.7
20260502230218 17 83 3.2 4.8 0.00 0.00 0.00 92 1022.7
20260502225403 16 82 1.6 4.8 0.00 0.00 0.00 93 1022.9
20260502224504 16 82 1.6 3.2 0.00 0.00 0.00 93 1022.8
20260502223816 16 82 1.6 3.2 0.00 0.00 0.00 94 1023.0
20260502222703 16 82 1.6 3.2 0.00 0.00 0.00 95 1022.9
20260502221803 15 82 1.6 3.2 0.00 0.00 0.00 96 1023.0
20260502220903 15 82 1.6 4.8 0.00 0.00 0.00 97 1022.7
20260502220004 14 82 0.0 1.6 0.00 0.00 0.00 97 1022.7
20260502215617 14 82 0.0 1.6 0.00 0.00 0.00 97 1022.7
20260502214503 13 82 0.0 3.2 0.00 0.00 0.00 96 1022.7
20260502213603 13 0 0.0 0.0 0.00 0.00 0.00 95 1022.3
20260502212703 13 0 0.0 0.0 0.00 0.00 0.00 95 1022.3
20260502211803 13 0 0.0 0.0 0.00 0.00 0.00 96 1022.1
20260502210903 13 0 0.0 0.0 0.00 0.00 0.00 96 1021.9
20260502210217 13 0 0.0 0.0 0.00 0.00 0.00 96 1022.0
20260502205403 13 0 0.0 0.0 0.00 0.00 0.00 96 1021.9
20260502204504 13 0 0.0 0.0 0.00 0.00 0.00 95 1022.1
20260502203603 13 0 0.0 0.0 0.00 0.00 0.00 96 1021.8
20260502202919 13 0 0.0 0.0 0.00 0.00 0.00 96 1021.7
20260502201803 13 0 0.0 0.0 0.00 0.00 0.00 95 1021.9
20260502200903 13 82 0.0 3.2 0.00 0.00 0.00 95 1021.8
20260502200003 13 82 1.6 3.2 0.00 0.00 0.00 95 1021.8
20260502195403 13 82 0.0 3.2 0.00 0.00 0.00 95 1021.9
20260502194503 13 82 0.0 1.6 0.00 0.00 0.00 95 1021.9
20260502193603 13 0 0.0 0.0 0.00 0.00 0.00 95 1022.0
20260502192703 13 0 0.0 0.0 0.00 0.00 0.00 95 1021.9
20260502191803 13 82 0.0 3.2 0.00 0.00 0.00 95 1021.8
20260502190903 13 0 0.0 0.0 0.00 0.00 0.00 95 1021.9